This is the latest recevied weather packets stored in our database for station/object WX5HOT. If no packets are shown the sender has not sent any weather packets the latest 10 day(s).
| Time | Temp. | Humidity | Pressure | Rain* | Wind** | Luminosity | Snow |
|---|---|---|---|---|---|---|---|
| 1777121556 | 13.33° C | 99% | 1060.9 hPa | 0 mm | - | 72 W/m² | - |
| 1777121252 | 13.33° C | 99% | 1060.8 hPa | 0 mm | - | 91 W/m² | - |
| 1777120949 | 13.33° C | 98% | 1060.4 hPa | 0 mm | - | 72 W/m² | - |
| 1777120645 | 13.33° C | 98% | 1060.6 hPa | 0 mm | - | 61 W/m² | - |
| 1777120341 | 13.33° C | 98% | 1060.4 hPa | 0 mm | - | 62 W/m² | - |
| 1777120036 | 13.33° C | 98% | 1060.4 hPa | 0 mm | - | 57 W/m² | - |
| 1777119732 | 13.33° C | 98% | 1060.5 hPa | 0 mm | - | 49 W/m² | - |
| 1777119428 | 13.33° C | 97% | 1060.1 hPa | 0 mm | - | 44 W/m² | - |
| 1777119128 | 13.33° C | 97% | 1059.9 hPa | 0 mm | - | 43 W/m² | - |
| 1777118823 | 13.33° C | 96% | 1060.2 hPa | 0 mm | - | 40 W/m² | - |
| 1777118521 | 13.33° C | 95% | 1060.1 hPa | 0 mm | - | 33 W/m² | - |
| 1777118221 | 13.89° C | 94% | 1060.1 hPa | 0 mm | - | 25 W/m² | - |
| 1777117918 | 13.89° C | 95% | 1059.9 hPa | 0 mm | - | 19 W/m² | - |
| 1777117614 | 13.89° C | 95% | 1059.8 hPa | 0 mm | - | 13 W/m² | - |
| 1777117312 | 13.89° C | 96% | 1060.1 hPa | 0 mm | - | 8 W/m² | - |
| 1777117007 | 13.89° C | 96% | 1059.9 hPa | 0 mm | - | 5 W/m² | - |
| 1777116703 | 13.89° C | 96% | 1059.9 hPa | 0 mm | - | 3 W/m² | - |
| 1777116399 | 13.89° C | 96% | 1059.9 hPa | 0 mm | - | 1 W/m² | - |
| 1777116095 | 13.33° C | 97% | 1059.6 hPa | 0 mm | - | 1 W/m² | - |
| 1777115795 | 13.33° C | 95% | 1059.6 hPa | 0 mm | - | 0 W/m² | - |
| 1777115491 | 13.89° C | 93% | 1059.6 hPa | 0 mm | - | 0 W/m² | - |
| 1777115187 | 14.44° C | 92% | 1059.7 hPa | 0 mm | - | 0 W/m² | - |
| 1777114885 | 15° C | 91% | 1059.7 hPa | 0 mm | - | 0 W/m² | - |
| 1777114581 | 14.44° C | 92% | 1059.7 hPa | 0 mm | - | 0 W/m² | - |
| 1777114280 | 14.44° C | 93% | 1059.5 hPa | 0 mm | - | 0 W/m² | - |
* Rain latest hour (hover to see other rain measurements)
** Current wind speed in m/s (hover to see current wind gust speed)